Weather History for Fort Smith, AR

Change the Weather History Date:

Monday, April 23, 2012

  Actual Average Record
Temperature  
Mean Temperature 59 °F 64 °F  
Max Temperature 71 °F 76 °F 91 °F (1965)
Min Temperature 46 °F 52 °F 36 °F (1893)
Degree Days  
Heating Degree Days 6 4  
Month to date heating degree days 46 136  
Since 1 July heating degree days 2319 3195  
Cooling Degree Days 0 2  
Month to date cooling degree days 59 36  
Year to date cooling degree days 159 48  
Growing Degree Days 8 (Base 50)    
Moisture  
Dew Point 40 °F    
Average Humidity 52    
Maximum Humidity 76    
Minimum Humidity 28    
Precipitation  
Precipitation 0.00 in 0.16 in 2.31 in (1970)
Month to date precipitation 2.30 3.18  
Year to date precipitation 16.96 12.60  
Sea Level Pressure  
Sea Level Pressure 30.15 in    
Wind  
Wind Speed 5 mph (NW)    
Max Wind Speed 16 mph    
Max Gust Speed 20 mph    
Visibility 10 miles    
Events      
T = Trace of Precipitation, MM = Missing Value Source: NWS Daily Summary

Daily Weather History Graph

Daily Weather History Graph

Search for Another Location

Airport:

Trip Planner

Search our weather history database for the weather conditions in past years. The results will help you decide how hot, cold, wet, or windy it might be!

Date:

Astronomy

Apr. 23, 2012 Rise Set
Actual Time 6:34 AM CDT 7:57 PM CDT
Civil Twilight 6:07 AM CDT 8:24 PM CDT
Nautical Twilight 5:35 AM CDT 8:56 PM CDT
Astronomical Twilight 5:02 AM CDT 9:29 PM CDT
Moon 7:50 AM CDT (4/23) 10:22 PM CDT (4/23)
Length of Visible Light 14h 16m
Length of Day
13h 22m
Waxing Crescent, 5% of the Moon is Illuminated
Apr 23
Waxing Crescent
Apr 29
First Quarter
May 5
Full
May 12
Last Quarter
May 20
New

Hourly Weather History & Observations

Time (CDT) Temp. Dew Point Humidity Pressure Visibility Wind Dir Wind Speed Gust Speed Precip Events Conditions
12:53 AM 54.0 °F 39.0 °F 57% 30.18 in 10.0 mi NW 3.5 mph - N/A   Clear
1:53 AM 50.0 °F 39.9 °F 68% 30.18 in 10.0 mi NNW 4.6 mph - N/A   Clear
2:53 AM 52.0 °F 39.0 °F 61% 30.18 in 10.0 mi Calm Calm - N/A   Clear
3:53 AM 50.0 °F 39.0 °F 66% 30.18 in 10.0 mi Calm Calm - N/A   Clear
4:53 AM 48.9 °F 39.9 °F 71% 30.19 in 10.0 mi Calm Calm - N/A   Clear
5:53 AM 46.0 °F 39.9 °F 79% 30.20 in 10.0 mi Calm Calm - N/A   Clear
6:53 AM 48.9 °F 39.0 °F 69% 30.22 in 10.0 mi Calm Calm - N/A   Clear
7:53 AM 50.0 °F 42.1 °F 74% 30.23 in 10.0 mi Calm Calm - N/A   Clear
8:53 AM 54.0 °F 42.1 °F 64% 30.25 in 10.0 mi NNW 5.8 mph - N/A   Clear
9:53 AM 57.9 °F 41.0 °F 53% 30.24 in 10.0 mi North 9.2 mph - N/A   Clear
10:53 AM 62.1 °F 37.0 °F 39% 30.24 in 10.0 mi North 4.6 mph - N/A   Clear
11:53 AM 64.0 °F 35.1 °F 34% 30.22 in 10.0 mi NNW 9.2 mph - N/A   Clear
12:53 PM 66.0 °F 36.0 °F 33% 30.20 in 10.0 mi NNW 5.8 mph - N/A   Clear
1:53 PM 66.9 °F 35.1 °F 31% 30.17 in 10.0 mi NNW 8.1 mph - N/A   Clear
2:53 PM 70.0 °F 36.0 °F 29% 30.13 in 10.0 mi North 8.1 mph - N/A   Clear
3:53 PM 70.0 °F 37.9 °F 31% 30.10 in 10.0 mi West 11.5 mph - N/A   Clear
4:53 PM 71.1 °F 41.0 °F 34% 30.07 in 10.0 mi West 12.7 mph 17.3 mph N/A   Clear
5:53 PM 69.1 °F 39.9 °F 35% 30.05 in 10.0 mi West 11.5 mph - N/A   Clear
6:53 PM 68.0 °F 39.9 °F 36% 30.03 in 10.0 mi West 12.7 mph - N/A   Clear
7:53 PM 64.0 °F 39.9 °F 41% 30.03 in 10.0 mi WNW 3.5 mph - N/A   Clear
8:53 PM 59.0 °F 44.1 °F 58% 30.04 in 10.0 mi WSW 4.6 mph - N/A   Clear
9:53 PM 57.0 °F 44.1 °F 62% 30.05 in 10.0 mi SW 5.8 mph - N/A   Clear
10:53 PM 54.0 °F 45.0 °F 72% 30.05 in 10.0 mi Calm Calm - N/A   Clear
11:53 PM 53.1 °F 45.0 °F 74% 30.05 in 10.0 mi Calm Calm - N/A   Clear